Time,TemperatureF,DewpointF,PressureIn,WindDirection,WindDirectionDegrees,WindSpeedMPH,WindSpeedGustMPH,Humidity,HourlyPrecipIn,Conditions,Clouds,dailyrainin,SoftwareType,DateUTC
2013-01-29 00:01:00,46.0,44.1,29.60,WSW,248,10.0,21.0,93,0.00,,,0.04,meteohub,2013-01-28 23:01:00,
2013-01-29 00:06:00,46.0,44.1,29.60,SW,225,11.0,15.0,93,0.00,,,0.04,meteohub,2013-01-28 23:06:00,
2013-01-29 00:12:00,46.2,44.2,29.60,SSE,158,15.0,15.0,93,0.00,,,0.04,meteohub,2013-01-28 23:12:00,
2013-01-29 00:17:00,46.6,44.6,29.60,North,0,8.0,15.0,93,0.00,,,0.04,meteohub,2013-01-28 23:17:00,
2013-01-29 00:22:00,46.8,44.8,29.60,North,0,6.0,15.0,93,0.00,,,0.04,meteohub,2013-01-28 23:22:00,
2013-01-29 00:28:00,47.5,45.3,29.63,ENE,68,8.0,15.0,92,0.00,,,0.04,meteohub,2013-01-28 23:28:00,
2013-01-29 00:33:00,47.8,45.3,29.63,SE,135,10.0,20.0,91,0.00,,,0.04,meteohub,2013-01-28 23:33:00,
2013-01-29 00:38:00,48.0,45.0,29.63,East,90,10.0,20.0,89,0.00,,,0.04,meteohub,2013-01-28 23:38:00,
2013-01-29 00:43:00,48.2,44.8,29.63,SSW,202,6.0,11.0,88,0.00,,,0.04,meteohub,2013-01-28 23:43:00,
2013-01-29 00:48:00,48.0,44.4,29.63,North,0,6.0,12.0,87,0.00,,,0.04,meteohub,2013-01-28 23:48:00,
2013-01-29 00:56:00,48.0,44.1,29.63,SE,135,6.0,12.0,86,0.00,,,0.04,meteohub,2013-01-28 23:56:00,
2013-01-29 01:01:00,48.2,44.2,29.63,NE,45,14.0,14.0,86,0.00,,,0.04,meteohub,2013-01-29 00:01:00,
2013-01-29 01:07:00,48.6,44.2,-100.00,ESE,112,13.0,14.0,85,0.00,,,0.00,meteohub,2013-01-29 00:07:00,
2013-01-29 01:12:00,48.7,44.4,29.63,NW,315,8.0,14.0,85,0.00,,,0.00,meteohub,2013-01-29 00:12:00,
2013-01-29 01:17:00,48.7,44.1,29.63,WSW,248,6.0,17.0,84,0.00,,,0.00,meteohub,2013-01-29 00:17:00,
2013-01-29 01:22:00,48.7,44.1,29.63,East,90,15.0,17.0,84,0.00,,,0.00,meteohub,2013-01-29 00:22:00,
2013-01-29 01:27:00,48.7,43.9,-100.00,East,90,11.0,17.0,83,0.00,,,0.00,meteohub,2013-01-29 00:27:00,
2013-01-29 01:32:00,48.7,43.9,29.63,SE,135,10.0,15.0,83,0.00,,,0.00,meteohub,2013-01-29 00:32:00,
2013-01-29 01:37:00,48.9,44.1,29.63,East,90,10.0,15.0,83,0.00,,,0.00,meteohub,2013-01-29 00:37:00,
2013-01-29 01:43:00,48.9,44.1,-100.00,ENE,68,11.0,15.0,83,0.00,,,0.00,meteohub,2013-01-29 00:43:00,
2013-01-29 01:49:00,49.1,44.4,29.63,ESE,112,13.0,15.0,84,0.00,,,0.00,meteohub,2013-01-29 00:49:00,
2013-01-29 01:54:00,49.1,44.4,29.63,East,90,8.0,16.0,84,0.00,,,0.00,meteohub,2013-01-29 00:54:00,
2013-01-29 01:59:00,49.1,44.4,29.66,South,180,11.0,16.0,84,0.00,,,0.00,meteohub,2013-01-29 00:59:00,
2013-01-29 02:08:00,49.3,45.0,-100.00,SW,225,21.0,21.0,85,0.00,,,0.00,meteohub,2013-01-29 01:08:00,
2013-01-29 02:13:00,49.1,45.1,29.66,WNW,292,9.0,21.0,86,0.00,,,0.00,meteohub,2013-01-29 01:13:00,
2013-01-29 02:18:00,49.3,45.3,29.66,WSW,248,11.0,21.0,86,0.00,,,0.00,meteohub,2013-01-29 01:18:00,
2013-01-29 02:24:00,49.3,45.5,29.66,South,180,9.0,21.0,87,0.00,,,0.00,meteohub,2013-01-29 01:24:00,
2013-01-29 02:29:00,49.3,45.9,29.63,SSW,202,15.0,21.0,88,0.00,,,0.00,meteohub,2013-01-29 01:29:00,
2013-01-29 02:34:00,49.3,46.2,-100.00,ENE,68,13.0,21.0,89,0.00,,,0.00,meteohub,2013-01-29 01:34:00,
2013-01-29 02:39:00,49.3,46.2,29.63,South,180,13.0,21.0,89,0.00,,,0.00,meteohub,2013-01-29 01:39:00,
2013-01-29 02:44:00,49.5,46.4,29.63,SW,225,10.0,19.0,89,0.00,,,0.00,meteohub,2013-01-29 01:44:00,
2013-01-29 02:49:00,49.3,46.2,29.63,South,180,14.0,17.0,89,0.00,,,0.00,meteohub,2013-01-29 01:49:00,
2013-01-29 02:54:00,49.3,46.2,29.63,SSW,202,13.0,15.0,89,0.00,,,0.00,meteohub,2013-01-29 01:54:00,
2013-01-29 02:59:00,49.3,46.2,29.63,WSW,248,8.0,16.0,89,0.00,,,0.00,meteohub,2013-01-29 01:59:00,
2013-01-29 03:05:00,49.3,46.2,-100.00,SSW,202,12.0,15.0,89,0.00,,,0.00,meteohub,2013-01-29 02:05:00,
2013-01-29 03:10:00,49.3,46.2,29.63,NW,315,11.0,13.0,89,0.00,,,0.00,meteohub,2013-01-29 02:10:00,
2013-01-29 03:16:00,49.3,46.2,29.63,WNW,292,16.0,16.0,89,0.00,,,0.00,meteohub,2013-01-29 02:16:00,
2013-01-29 03:21:00,49.5,46.4,29.63,SW,225,10.0,16.0,89,0.00,,,0.00,meteohub,2013-01-29 02:21:00,
2013-01-29 03:26:00,49.5,46.0,29.63,SE,135,9.0,20.0,88,0.00,,,0.00,meteohub,2013-01-29 02:26:00,
2013-01-29 03:31:00,49.5,46.0,29.63,SE,135,10.0,20.0,88,0.00,,,0.00,meteohub,2013-01-29 02:31:00,
2013-01-29 03:36:00,49.6,46.2,29.63,NE,45,11.0,20.0,88,0.00,,,0.00,meteohub,2013-01-29 02:36:00,
2013-01-29 03:41:00,49.6,45.9,29.63,NE,45,9.0,13.0,87,0.00,,,0.00,meteohub,2013-01-29 02:41:00,
2013-01-29 03:46:00,49.6,45.9,29.63,ESE,112,8.0,15.0,87,0.00,,,0.00,meteohub,2013-01-29 02:46:00,
2013-01-29 03:51:00,49.6,45.9,29.63,SSE,158,16.0,16.0,87,0.00,,,0.00,meteohub,2013-01-29 02:51:00,
2013-01-29 03:56:00,49.6,45.7,29.63,ESE,112,11.0,15.0,86,0.00,,,0.00,meteohub,2013-01-29 02:56:00,
2013-01-29 04:04:00,49.6,45.7,-100.00,WSW,248,8.0,18.0,86,0.00,,,0.00,meteohub,2013-01-29 03:04:00,
2013-01-29 04:09:00,49.6,45.3,29.63,NE,45,11.0,18.0,85,0.00,,,0.00,meteohub,2013-01-29 03:09:00,
2013-01-29 04:14:00,49.6,45.3,29.63,South,180,9.0,18.0,85,0.00,,,0.00,meteohub,2013-01-29 03:14:00,
2013-01-29 04:19:00,49.6,45.3,29.63,NNE,22,10.0,15.0,85,0.00,,,0.00,meteohub,2013-01-29 03:19:00,
2013-01-29 04:24:00,49.6,45.0,29.63,West,270,15.0,15.0,84,0.00,,,0.00,meteohub,2013-01-29 03:24:00,
2013-01-29 04:29:00,49.6,45.0,29.63,SW,225,5.0,15.0,84,0.00,,,0.00,meteohub,2013-01-29 03:29:00,
2013-01-29 04:34:00,49.6,45.0,29.63,East,90,10.0,15.0,84,0.00,,,0.00,meteohub,2013-01-29 03:34:00,
2013-01-29 04:39:00,49.6,45.0,29.63,SW,225,12.0,15.0,84,0.00,,,0.00,meteohub,2013-01-29 03:39:00,
2013-01-29 04:44:00,49.5,44.8,29.63,SE,135,6.0,24.0,84,0.00,,,0.00,meteohub,2013-01-29 03:44:00,
2013-01-29 04:50:00,49.6,45.0,-100.00,SW,225,11.0,24.0,84,0.00,,,0.00,meteohub,2013-01-29 03:50:00,
2013-01-29 04:55:00,49.5,44.8,29.63,ENE,68,10.0,24.0,84,0.00,,,0.00,meteohub,2013-01-29 03:55:00,
2013-01-29 05:00:00,49.6,45.3,29.63,West,270,10.0,13.0,85,0.00,,,0.00,meteohub,2013-01-29 04:00:00,
2013-01-29 05:05:00,49.6,45.3,29.63,NNE,22,13.0,13.0,85,0.00,,,0.00,meteohub,2013-01-29 04:05:00,
2013-01-29 05:10:00,49.6,45.3,29.63,ENE,68,17.0,17.0,85,0.00,,,0.00,meteohub,2013-01-29 04:10:00,
2013-01-29 05:16:00,49.5,45.1,29.63,ESE,112,10.0,17.0,85,0.00,,,0.00,meteohub,2013-01-29 04:16:00,
2013-01-29 05:21:00,49.6,45.7,-100.00,ENE,68,9.0,17.0,86,0.00,,,0.00,meteohub,2013-01-29 04:21:00,
2013-01-29 05:26:00,49.6,45.3,29.63,NNE,22,12.0,17.0,85,0.00,,,0.00,meteohub,2013-01-29 04:26:00,
2013-01-29 05:31:00,49.6,45.3,29.63,SSW,202,18.0,18.0,85,0.00,,,0.00,meteohub,2013-01-29 04:31:00,
2013-01-29 05:40:00,49.5,45.1,29.63,SSW,202,6.0,19.0,85,0.00,,,0.00,meteohub,2013-01-29 04:40:00,
2013-01-29 05:45:00,49.5,45.1,29.63,SE,135,11.0,19.0,85,0.00,,,0.00,meteohub,2013-01-29 04:45:00,
2013-01-29 05:50:00,49.6,45.3,-100.00,ENE,68,8.0,15.0,85,0.00,,,0.00,meteohub,2013-01-29 04:50:00,
2013-01-29 05:55:00,49.6,45.3,29.63,NW,315,16.0,16.0,85,0.00,,,0.00,meteohub,2013-01-29 04:55:00,
2013-01-29 06:00:00,49.5,45.5,29.63,SSW,202,10.0,15.0,86,0.00,,,0.00,meteohub,2013-01-29 05:00:00,
2013-01-29 06:01:00,49.5,45.5,29.63,SSW,202,10.0,16.0,86,0.00,,,0.00,meteohub,2013-01-29 05:01:00,
2013-01-29 06:03:00,49.5,45.5,29.63,NE,45,19.0,19.0,86,0.00,,,0.00,meteohub,2013-01-29 05:03:00,
2013-01-29 06:05:00,49.5,45.5,29.63,ENE,68,8.0,19.0,86,0.00,,,0.00,meteohub,2013-01-29 05:05:00,
2013-01-29 06:11:00,49.5,45.5,29.63,NE,45,17.0,19.0,86,0.00,,,0.00,meteohub,2013-01-29 05:11:00,
2013-01-29 06:16:00,49.5,45.7,29.63,North,0,10.0,19.0,87,0.00,,,0.00,meteohub,2013-01-29 05:16:00,
2013-01-29 06:21:00,49.5,45.7,29.63,West,270,17.0,18.0,87,0.00,,,0.00,meteohub,2013-01-29 05:21:00,
2013-01-29 06:26:00,49.6,46.2,29.63,NE,45,9.0,17.0,88,0.00,,,0.00,meteohub,2013-01-29 05:26:00,
2013-01-29 06:31:00,49.5,46.4,29.63,NE,45,20.0,20.0,89,0.00,,,0.00,meteohub,2013-01-29 05:31:00,
2013-01-29 06:36:00,49.5,46.6,29.63,SW,225,11.0,20.0,90,0.00,,,0.00,meteohub,2013-01-29 05:36:00,
2013-01-29 06:43:00,49.3,46.8,29.63,SE,135,16.0,20.0,91,0.00,,,0.00,meteohub,2013-01-29 05:43:00,
2013-01-29 06:48:00,49.3,46.8,29.63,West,270,10.0,20.0,91,0.00,,,0.00,meteohub,2013-01-29 05:48:00,
2013-01-29 06:54:00,49.1,46.6,29.63,South,180,8.0,16.0,91,0.00,,,0.00,meteohub,2013-01-29 05:54:00,
2013-01-29 06:59:00,49.1,46.9,29.66,ESE,112,14.0,17.0,92,0.00,,,0.00,meteohub,2013-01-29 05:59:00,
2013-01-29 07:04:00,49.1,47.1,29.66,SE,135,13.0,17.0,93,0.00,,,0.00,meteohub,2013-01-29 06:04:00,
2013-01-29 07:09:00,49.1,47.1,29.66,NW,315,12.0,17.0,93,0.00,,,0.00,meteohub,2013-01-29 06:09:00,
2013-01-29 07:14:00,49.1,47.1,29.66,SW,225,15.0,16.0,93,0.00,,,0.00,meteohub,2013-01-29 06:14:00,
2013-01-29 07:19:00,49.1,47.1,29.66,West,270,6.0,16.0,93,0.00,,,0.00,meteohub,2013-01-29 06:19:00,
2013-01-29 07:24:00,49.1,47.1,29.66,South,180,8.0,16.0,93,0.00,,,0.00,meteohub,2013-01-29 06:24:00,
2013-01-29 07:29:00,49.1,47.1,29.66,SE,135,7.0,15.0,93,0.00,,,0.00,meteohub,2013-01-29 06:29:00,
2013-01-29 07:34:00,49.1,47.1,29.66,West,270,9.0,10.0,93,0.00,,,0.00,meteohub,2013-01-29 06:34:00,
2013-01-29 07:40:00,49.3,47.3,29.66,West,270,8.0,11.0,93,0.00,,,0.00,meteohub,2013-01-29 06:40:00,
2013-01-29 07:51:00,49.6,47.7,29.66,WNW,292,11.0,13.0,93,0.00,,,0.00,meteohub,2013-01-29 06:51:00,
2013-01-29 07:56:00,49.6,47.7,29.66,ESE,112,6.0,13.0,93,0.00,,,0.00,meteohub,2013-01-29 06:56:00,
2013-01-29 08:10:00,49.8,47.8,29.69,East,90,8.0,11.0,93,0.00,,,0.00,meteohub,2013-01-29 07:10:00,
2013-01-29 08:17:00,49.8,47.8,29.69,SE,135,5.0,11.0,93,0.00,,,0.00,meteohub,2013-01-29 07:17:00,
2013-01-29 08:23:00,49.8,47.8,29.69,East,90,6.0,10.0,93,0.00,,,0.00,meteohub,2013-01-29 07:23:00,
2013-01-29 08:30:00,49.8,47.8,29.69,NW,315,7.0,11.0,93,0.00,,,0.00,meteohub,2013-01-29 07:30:00,
2013-01-29 08:35:00,49.8,48.2,29.69,NE,45,9.0,11.0,94,0.00,,,0.00,meteohub,2013-01-29 07:35:00,
2013-01-29 08:41:00,49.8,48.2,29.69,SW,225,10.0,13.0,94,0.00,,,0.00,meteohub,2013-01-29 07:41:00,
2013-01-29 08:50:00,49.6,48.0,29.69,ENE,68,7.0,13.0,94,0.00,,,0.00,meteohub,2013-01-29 07:50:00,
2013-01-29 08:55:00,49.5,47.8,29.69,SW,225,9.0,11.0,94,0.00,,,0.00,meteohub,2013-01-29 07:55:00,
2013-01-29 09:00:00,49.5,47.8,29.69,NE,45,13.0,13.0,94,0.00,,,0.00,meteohub,2013-01-29 08:00:00,
2013-01-29 09:05:00,49.5,47.8,-100.00,NE,45,5.0,13.0,94,0.00,,,0.00,meteohub,2013-01-29 08:05:00,
2013-01-29 09:10:00,49.5,47.8,-100.00,SSE,158,8.0,13.0,94,0.00,,,0.00,meteohub,2013-01-29 08:10:00,
2013-01-29 09:15:00,49.5,48.0,29.69,NW,315,7.0,13.0,95,0.00,,,0.00,meteohub,2013-01-29 08:15:00,
2013-01-29 09:20:00,49.3,47.8,29.69,North,0,5.0,11.0,95,0.00,,,0.00,meteohub,2013-01-29 08:20:00,
2013-01-29 09:25:00,49.3,47.8,-100.00,NW,315,14.0,14.0,95,0.00,,,0.00,meteohub,2013-01-29 08:25:00,
2013-01-29 09:31:00,49.3,47.8,29.69,SE,135,8.0,14.0,95,0.00,,,0.00,meteohub,2013-01-29 08:31:00,
2013-01-29 09:38:00,49.3,47.8,-100.00,East,90,9.0,14.0,95,0.00,,,0.00,meteohub,2013-01-29 08:38:00,
2013-01-29 09:43:00,49.5,48.0,29.69,SE,135,6.0,14.0,95,0.00,,,0.00,meteohub,2013-01-29 08:43:00,
2013-01-29 09:48:00,49.5,48.0,29.69,NNE,22,10.0,10.0,95,0.00,,,0.00,meteohub,2013-01-29 08:48:00,
2013-01-29 09:54:00,49.3,47.8,29.69,South,180,10.0,10.0,95,0.00,,,0.00,meteohub,2013-01-29 08:54:00,
2013-01-29 09:59:00,49.5,48.0,29.69,NE,45,7.0,13.0,95,0.00,,,0.00,meteohub,2013-01-29 08:59:00,
2013-01-29 10:04:00,49.3,47.8,29.69,NE,45,7.0,13.0,95,0.00,,,0.00,meteohub,2013-01-29 09:04:00,
2013-01-29 10:09:00,49.5,48.0,29.69,North,0,10.0,13.0,95,0.00,,,0.00,meteohub,2013-01-29 09:09:00,
2013-01-29 10:16:00,49.3,47.8,-100.00,South,180,6.0,11.0,95,0.00,,,0.00,meteohub,2013-01-29 09:16:00,
2013-01-29 10:21:00,49.3,47.8,29.69,ENE,68,10.0,11.0,95,0.00,,,0.00,meteohub,2013-01-29 09:21:00,
2013-01-29 10:27:00,49.3,47.8,29.69,SE,135,10.0,11.0,95,0.00,,,0.00,meteohub,2013-01-29 09:27:00,
2013-01-29 10:32:00,49.5,48.0,29.69,SW,225,8.0,10.0,95,0.00,,,0.00,meteohub,2013-01-29 09:32:00,
2013-01-29 10:39:00,49.5,48.0,-100.00,ESE,112,8.0,10.0,95,0.00,,,0.00,meteohub,2013-01-29 09:39:00,
2013-01-29 10:46:00,49.5,48.0,-100.00,North,0,5.0,9.0,95,0.00,,,0.00,meteohub,2013-01-29 09:46:00,
2013-01-29 10:51:00,49.6,48.2,29.69,East,90,7.0,9.0,95,0.00,,,0.00,meteohub,2013-01-29 09:51:00,
2013-01-29 10:56:00,49.6,48.2,29.69,North,0,3.0,9.0,95,0.00,,,0.00,meteohub,2013-01-29 09:56:00,
2013-01-29 11:02:00,49.5,48.0,-100.00,NE,45,4.0,8.0,95,0.00,,,0.00,meteohub,2013-01-29 10:02:00,
2013-01-29 11:07:00,49.5,48.0,29.72,ESE,112,3.0,8.0,95,0.00,,,0.00,meteohub,2013-01-29 10:07:00,
2013-01-29 11:12:00,49.5,48.0,29.72,ESE,112,3.0,8.0,95,0.00,,,0.00,meteohub,2013-01-29 10:12:00,
2013-01-29 11:17:00,49.5,48.0,29.72,NW,315,3.0,5.0,95,0.00,,,0.00,meteohub,2013-01-29 10:17:00,
2013-01-29 11:22:00,49.5,48.0,29.72,West,270,3.0,7.0,95,0.00,,,0.00,meteohub,2013-01-29 10:22:00,
2013-01-29 11:27:00,49.6,48.2,-100.00,South,180,7.0,7.0,95,0.00,,,0.00,meteohub,2013-01-29 10:27:00,
2013-01-29 11:32:00,49.6,48.2,29.72,WSW,248,4.0,7.0,95,0.00,,,0.00,meteohub,2013-01-29 10:32:00,
2013-01-29 11:37:00,49.6,48.2,29.72,North,0,6.0,9.0,95,0.00,,,0.00,meteohub,2013-01-29 10:37:00,
2013-01-29 11:42:00,49.6,48.2,29.72,East,90,4.0,9.0,95,0.00,,,0.00,meteohub,2013-01-29 10:42:00,
2013-01-29 11:47:00,49.6,48.2,29.72,SW,225,6.0,6.0,95,0.00,,,0.00,meteohub,2013-01-29 10:47:00,
2013-01-29 11:52:00,49.6,48.2,-100.00,NNE,22,4.0,9.0,95,0.00,,,0.00,meteohub,2013-01-29 10:52:00,
2013-01-29 11:58:00,49.6,48.6,29.72,East,90,6.0,9.0,96,0.00,,,0.00,meteohub,2013-01-29 10:58:00,
2013-01-29 12:03:00,49.6,48.6,29.72,South,180,11.0,13.0,96,0.00,,,0.00,meteohub,2013-01-29 11:03:00,
2013-01-29 12:09:00,49.6,48.6,29.72,East,90,6.0,13.0,96,0.00,,,0.00,meteohub,2013-01-29 11:09:00,
2013-01-29 12:15:00,49.6,48.6,29.72,SSE,158,13.0,13.0,96,0.00,,,0.00,meteohub,2013-01-29 11:15:00,
2013-01-29 12:23:00,49.5,48.4,29.72,ENE,68,6.0,13.0,96,0.00,,,0.00,meteohub,2013-01-29 11:23:00,
2013-01-29 12:28:00,49.6,48.6,29.69,ENE,68,8.0,13.0,96,0.00,,,0.00,meteohub,2013-01-29 11:28:00,
2013-01-29 12:33:00,49.5,48.4,29.69,SW,225,10.0,10.0,96,0.00,,,0.00,meteohub,2013-01-29 11:33:00,
2013-01-29 12:39:00,49.6,48.6,29.69,SE,135,9.0,10.0,96,0.00,,,0.00,meteohub,2013-01-29 11:39:00,
2013-01-29 12:44:00,49.6,48.6,29.72,NW,315,6.0,10.0,96,0.00,,,0.00,meteohub,2013-01-29 11:44:00,
2013-01-29 12:51:00,49.8,48.7,29.72,WNW,292,6.0,9.0,96,0.00,,,0.00,meteohub,2013-01-29 11:51:00,
2013-01-29 12:57:00,50.0,48.9,29.72,WSW,248,6.0,11.0,96,0.00,,,0.00,meteohub,2013-01-29 11:57:00,
2013-01-29 13:02:00,50.0,48.9,-100.00,NE,45,10.0,11.0,96,0.00,,,0.00,meteohub,2013-01-29 12:02:00,
2013-01-29 13:07:00,49.8,48.7,29.72,NE,45,6.0,11.0,96,0.00,,,0.00,meteohub,2013-01-29 12:07:00,
2013-01-29 13:12:00,49.8,48.7,29.72,NW,315,4.0,10.0,96,0.00,,,0.00,meteohub,2013-01-29 12:12:00,
2013-01-29 13:17:00,49.8,48.7,29.72,South,180,4.0,9.0,96,0.00,,,0.00,meteohub,2013-01-29 12:17:00,
2013-01-29 13:25:00,50.2,49.1,-100.00,SSE,158,5.0,10.0,96,0.00,,,0.00,meteohub,2013-01-29 12:25:00,
2013-01-29 13:30:00,50.2,49.1,29.72,SE,135,5.0,11.0,96,0.00,,,0.00,meteohub,2013-01-29 12:30:00,
2013-01-29 13:37:00,50.2,49.1,-100.00,ENE,68,8.0,11.0,96,0.00,,,0.00,meteohub,2013-01-29 12:37:00,
2013-01-29 13:42:00,50.4,49.5,29.72,ESE,112,6.0,10.0,97,0.00,,,0.00,meteohub,2013-01-29 12:42:00,
2013-01-29 13:48:00,50.4,49.5,29.72,SE,135,6.0,10.0,97,0.00,,,0.00,meteohub,2013-01-29 12:48:00,
2013-01-29 13:53:00,50.4,49.5,29.72,SE,135,6.0,10.0,97,0.00,,,0.00,meteohub,2013-01-29 12:53:00,
2013-01-29 13:58:00,50.4,49.5,29.72,East,90,6.0,10.0,97,0.00,,,0.00,meteohub,2013-01-29 12:58:00,
2013-01-29 14:03:00,50.4,49.5,29.72,East,90,14.0,14.0,97,0.00,,,0.00,meteohub,2013-01-29 13:03:00,
2013-01-29 14:08:00,50.5,49.6,29.72,North,0,5.0,14.0,97,0.00,,,0.00,meteohub,2013-01-29 13:08:00,
2013-01-29 14:13:00,50.5,49.6,29.72,East,90,6.0,14.0,97,0.05,,,0.05,meteohub,2013-01-29 13:13:00,
2013-01-29 14:18:00,50.5,49.6,29.69,North,0,6.0,9.0,97,0.05,,,0.05,meteohub,2013-01-29 13:18:00,
2013-01-29 14:23:00,50.5,49.6,29.69,NE,45,8.0,10.0,97,0.05,,,0.05,meteohub,2013-01-29 13:23:00,
2013-01-29 14:28:00,50.5,49.6,29.69,East,90,8.0,11.0,97,0.05,,,0.05,meteohub,2013-01-29 13:28:00,
2013-01-29 14:33:00,50.5,49.6,29.69,SSE,158,7.0,11.0,97,0.05,,,0.05,meteohub,2013-01-29 13:33:00,
2013-01-29 14:39:00,50.5,49.6,29.69,East,90,6.0,11.0,97,0.05,,,0.05,meteohub,2013-01-29 13:39:00,
2013-01-29 14:44:00,50.4,49.5,29.69,North,0,13.0,13.0,97,0.05,,,0.05,meteohub,2013-01-29 13:44:00,
2013-01-29 14:49:00,50.5,49.6,29.69,ESE,112,11.0,11.0,97,0.05,,,0.05,meteohub,2013-01-29 13:49:00,
2013-01-29 14:54:00,50.4,49.5,29.69,East,90,8.0,15.0,97,0.05,,,0.05,meteohub,2013-01-29 13:54:00,
2013-01-29 14:59:00,50.4,49.5,29.69,NE,45,6.0,15.0,97,0.05,,,0.05,meteohub,2013-01-29 13:59:00,
2013-01-29 15:04:00,50.4,49.5,-100.00,East,90,9.0,11.0,97,0.00,,,0.05,meteohub,2013-01-29 14:04:00,
2013-01-29 15:09:00,50.4,49.5,-100.00,NW,315,11.0,11.0,97,0.00,,,0.05,meteohub,2013-01-29 14:09:00,
2013-01-29 15:14:00,50.5,49.6,29.69,NE,45,10.0,11.0,97,0.00,,,0.05,meteohub,2013-01-29 14:14:00,
2013-01-29 15:19:00,50.5,49.6,29.69,NE,45,8.0,20.0,97,0.00,,,0.05,meteohub,2013-01-29 14:19:00,
2013-01-29 15:25:00,50.5,49.6,29.69,West,270,11.0,20.0,97,0.00,,,0.05,meteohub,2013-01-29 14:25:00,
2013-01-29 15:30:00,50.7,50.2,29.69,SW,225,9.0,20.0,98,0.00,,,0.05,meteohub,2013-01-29 14:30:00,
2013-01-29 15:35:00,50.9,50.4,29.69,East,90,10.0,11.0,98,0.00,,,0.05,meteohub,2013-01-29 14:35:00,
2013-01-29 15:40:00,50.9,50.4,29.69,North,0,10.0,10.0,98,0.00,,,0.05,meteohub,2013-01-29 14:40:00,
2013-01-29 15:45:00,51.1,50.5,29.69,ENE,68,12.0,12.0,98,0.00,,,0.05,meteohub,2013-01-29 14:45:00,
2013-01-29 15:50:00,51.3,50.7,29.69,West,270,8.0,12.0,98,0.00,,,0.05,meteohub,2013-01-29 14:50:00,
2013-01-29 16:00:00,51.4,50.9,29.69,East,90,5.0,13.0,98,0.00,,,0.05,meteohub,2013-01-29 15:00:00,
2013-01-29 16:05:00,51.4,50.9,29.69,North,0,9.0,13.0,98,0.00,,,0.05,meteohub,2013-01-29 15:05:00,
2013-01-29 16:10:00,51.6,51.1,29.69,SSW,202,8.0,13.0,98,0.00,,,0.05,meteohub,2013-01-29 15:10:00,
2013-01-29 16:16:00,51.6,51.1,29.69,South,180,8.0,13.0,98,0.00,,,0.05,meteohub,2013-01-29 15:16:00,
2013-01-29 16:21:00,51.6,51.1,29.69,SE,135,8.0,13.0,98,0.00,,,0.05,meteohub,2013-01-29 15:21:00,
2013-01-29 16:26:00,51.8,50.9,29.69,East,90,8.0,11.0,97,0.00,,,0.05,meteohub,2013-01-29 15:26:00,
2013-01-29 16:31:00,51.8,50.7,29.69,North,0,8.0,14.0,96,0.00,,,0.05,meteohub,2013-01-29 15:31:00,
2013-01-29 16:36:00,51.8,50.7,29.69,WSW,248,15.0,15.0,96,0.00,,,0.05,meteohub,2013-01-29 15:36:00,
2013-01-29 16:41:00,51.8,50.7,29.69,West,270,8.0,17.0,96,0.00,,,0.05,meteohub,2013-01-29 15:41:00,
2013-01-29 16:46:00,51.8,50.7,29.69,ENE,68,10.0,17.0,96,0.00,,,0.05,meteohub,2013-01-29 15:46:00,
2013-01-29 16:51:00,51.6,50.5,29.69,WSW,248,10.0,17.0,96,0.00,,,0.05,meteohub,2013-01-29 15:51:00,
2013-01-29 16:56:00,51.6,50.5,29.69,NE,45,9.0,13.0,96,0.00,,,0.05,meteohub,2013-01-29 15:56:00,
2013-01-29 17:03:00,51.6,50.5,29.69,West,270,8.0,14.0,96,0.00,,,0.05,meteohub,2013-01-29 16:03:00,
2013-01-29 17:09:00,51.6,50.5,29.69,NW,315,12.0,14.0,96,0.00,,,0.05,meteohub,2013-01-29 16:09:00,
2013-01-29 17:14:00,51.6,50.5,29.69,West,270,9.0,14.0,96,0.00,,,0.05,meteohub,2013-01-29 16:14:00,
2013-01-29 17:19:00,51.4,50.4,29.66,NE,45,8.0,14.0,96,0.00,,,0.05,meteohub,2013-01-29 16:19:00,
2013-01-29 17:27:00,51.3,50.2,-100.00,NNE,22,11.0,12.0,96,0.00,,,0.05,meteohub,2013-01-29 16:27:00,
2013-01-29 17:32:00,51.3,50.2,29.66,SSE,158,10.0,12.0,96,0.00,,,0.05,meteohub,2013-01-29 16:32:00,
2013-01-29 17:37:00,51.3,50.4,29.66,NNE,22,11.0,23.0,97,0.00,,,0.05,meteohub,2013-01-29 16:37:00,
2013-01-29 17:42:00,51.3,50.4,29.66,NE,45,9.0,23.0,97,0.00,,,0.05,meteohub,2013-01-29 16:42:00,
2013-01-29 17:47:00,51.3,50.4,29.66,NE,45,6.0,23.0,97,0.00,,,0.05,meteohub,2013-01-29 16:47:00,
2013-01-29 17:53:00,51.4,50.5,29.66,ENE,68,13.0,15.0,97,0.00,,,0.05,meteohub,2013-01-29 16:53:00,
2013-01-29 17:58:00,51.4,50.5,29.66,North,0,8.0,15.0,97,0.00,,,0.05,meteohub,2013-01-29 16:58:00,
2013-01-29 18:03:00,51.6,50.7,29.66,WSW,248,11.0,15.0,97,0.00,,,0.05,meteohub,2013-01-29 17:03:00,
2013-01-29 18:08:00,51.6,50.7,29.66,WNW,292,11.0,13.0,97,0.00,,,0.05,meteohub,2013-01-29 17:08:00,
2013-01-29 18:13:00,51.6,50.7,29.66,NNW,338,14.0,18.0,97,0.00,,,0.05,meteohub,2013-01-29 17:13:00,
2013-01-29 18:18:00,52.0,51.1,29.66,NE,45,11.0,18.0,97,0.00,,,0.05,meteohub,2013-01-29 17:18:00,
2013-01-29 18:23:00,51.8,50.9,29.66,WSW,248,11.0,18.0,97,0.00,,,0.05,meteohub,2013-01-29 17:23:00,
2013-01-29 18:28:00,51.8,50.9,29.69,WSW,248,11.0,15.0,97,0.00,,,0.05,meteohub,2013-01-29 17:28:00,
2013-01-29 18:34:00,52.0,51.1,29.69,NW,315,14.0,15.0,97,0.00,,,0.05,meteohub,2013-01-29 17:34:00,
2013-01-29 18:40:00,52.0,51.1,29.69,NW,315,10.0,15.0,97,0.00,,,0.05,meteohub,2013-01-29 17:40:00,
2013-01-29 18:45:00,52.2,51.3,29.69,East,90,17.0,17.0,97,0.00,,,0.05,meteohub,2013-01-29 17:45:00,
2013-01-29 18:50:00,52.2,51.3,-100.00,North,0,11.0,14.0,97,0.00,,,0.05,meteohub,2013-01-29 17:50:00,
2013-01-29 18:55:00,52.2,51.3,29.69,South,180,10.0,17.0,97,0.00,,,0.05,meteohub,2013-01-29 17:55:00,
2013-01-29 19:02:00,52.3,51.4,29.66,East,90,10.0,14.0,97,0.00,,,0.05,meteohub,2013-01-29 18:02:00,
2013-01-29 19:07:00,52.3,51.4,-100.00,ENE,68,12.0,14.0,97,0.00,,,0.05,meteohub,2013-01-29 18:07:00,
2013-01-29 19:12:00,52.5,51.6,29.66,North,0,19.0,19.0,97,0.00,,,0.05,meteohub,2013-01-29 18:12:00,
2013-01-29 19:19:00,52.7,51.6,-100.00,North,0,15.0,19.0,96,0.00,,,0.05,meteohub,2013-01-29 18:19:00,
2013-01-29 19:24:00,52.7,51.6,29.66,SSE,158,12.0,19.0,96,0.00,,,0.05,meteohub,2013-01-29 18:24:00,
2013-01-29 19:30:00,52.7,51.6,29.66,West,270,12.0,19.0,96,0.00,,,0.05,meteohub,2013-01-29 18:30:00,
2013-01-29 19:35:00,53.1,52.0,29.66,SSE,158,11.0,18.0,96,0.00,,,0.05,meteohub,2013-01-29 18:35:00,
2013-01-29 19:40:00,53.1,51.6,29.66,NE,45,13.0,18.0,95,0.00,,,0.05,meteohub,2013-01-29 18:40:00,
2013-01-29 19:45:00,53.2,51.8,-100.00,North,0,17.0,18.0,95,0.00,,,0.05,meteohub,2013-01-29 18:45:00,
2013-01-29 19:50:00,53.4,52.0,29.66,SE,135,18.0,18.0,95,0.00,,,0.05,meteohub,2013-01-29 18:50:00,
2013-01-29 19:55:00,53.4,51.8,-100.00,NNW,338,17.0,18.0,94,0.00,,,0.05,meteohub,2013-01-29 18:55:00,
2013-01-29 20:00:00,53.4,51.8,29.66,NE,45,13.0,18.0,94,0.00,,,0.05,meteohub,2013-01-29 19:00:00,
2013-01-29 20:07:00,53.6,51.6,-100.00,West,270,15.0,17.0,93,0.00,,,0.05,meteohub,2013-01-29 19:07:00,
2013-01-29 20:12:00,53.4,51.4,29.66,West,270,17.0,17.0,93,0.00,,,0.05,meteohub,2013-01-29 19:12:00,
2013-01-29 20:17:00,53.4,51.1,29.66,South,180,10.0,17.0,92,0.00,,,0.05,meteohub,2013-01-29 19:17:00,
2013-01-29 20:22:00,53.4,51.1,29.66,East,90,23.0,23.0,92,0.00,,,0.05,meteohub,2013-01-29 19:22:00,
2013-01-29 20:27:00,53.6,51.1,29.66,East,90,9.0,23.0,91,0.00,,,0.05,meteohub,2013-01-29 19:27:00,
2013-01-29 20:32:00,53.6,50.7,29.66,WNW,292,9.0,23.0,90,0.00,,,0.05,meteohub,2013-01-29 19:32:00,
2013-01-29 20:37:00,53.8,50.9,29.66,SE,135,10.0,23.0,90,0.00,,,0.05,meteohub,2013-01-29 19:37:00,
2013-01-29 20:44:00,53.8,50.5,29.66,SSW,202,15.0,17.0,89,0.00,,,0.05,meteohub,2013-01-29 19:44:00,
2013-01-29 20:49:00,53.8,50.5,29.66,WSW,248,9.0,12.0,89,0.00,,,0.05,meteohub,2013-01-29 19:49:00,
2013-01-29 20:54:00,54.0,50.7,29.66,North,0,12.0,15.0,89,0.00,,,0.05,meteohub,2013-01-29 19:54:00,
2013-01-29 20:59:00,54.0,50.5,29.66,ESE,112,11.0,15.0,88,0.00,,,0.05,meteohub,2013-01-29 19:59:00,
2013-01-29 21:01:00,54.0,50.5,29.66,ESE,112,11.0,15.0,88,0.00,,,0.05,meteohub,2013-01-29 20:01:00,
2013-01-29 21:06:00,54.3,50.5,-100.00,SW,225,13.0,15.0,87,0.00,,,0.05,meteohub,2013-01-29 20:06:00,
2013-01-29 21:12:00,54.5,50.4,29.66,SW,225,11.0,15.0,86,0.00,,,0.05,meteohub,2013-01-29 20:12:00,
2013-01-29 21:17:00,54.5,50.4,29.66,NNE,22,17.0,17.0,86,0.00,,,0.05,meteohub,2013-01-29 20:17:00,
2013-01-29 21:22:00,54.5,50.4,-100.00,NNW,338,8.0,17.0,86,0.00,,,0.05,meteohub,2013-01-29 20:22:00,
2013-01-29 21:27:00,54.5,50.0,29.66,West,270,12.0,17.0,85,0.00,,,0.05,meteohub,2013-01-29 20:27:00,
2013-01-29 21:32:00,54.5,50.0,29.66,NNW,338,25.0,25.0,85,0.00,,,0.05,meteohub,2013-01-29 20:32:00,
2013-01-29 21:37:00,54.5,50.0,29.66,SE,135,10.0,25.0,85,0.00,,,0.05,meteohub,2013-01-29 20:37:00,
2013-01-29 21:42:00,54.3,50.0,29.66,SW,225,6.0,25.0,85,0.00,,,0.05,meteohub,2013-01-29 20:42:00,
2013-01-29 21:47:00,54.5,50.0,29.66,NE,45,10.0,25.0,85,0.00,,,0.05,meteohub,2013-01-29 20:47:00,
2013-01-29 21:53:00,54.5,50.0,-100.00,ENE,68,12.0,16.0,85,0.00,,,0.05,meteohub,2013-01-29 20:53:00,
2013-01-29 21:58:00,54.5,49.8,29.66,NE,45,11.0,16.0,84,0.00,,,0.05,meteohub,2013-01-29 20:58:00,
2013-01-29 22:03:00,54.5,49.8,29.66,East,90,17.0,23.0,84,0.00,,,0.05,meteohub,2013-01-29 21:03:00,
2013-01-29 22:08:00,54.5,49.8,29.66,WNW,292,13.0,23.0,84,0.00,,,0.05,meteohub,2013-01-29 21:08:00,
2013-01-29 22:13:00,54.5,49.8,29.66,NNW,338,10.0,18.0,84,0.00,,,0.05,meteohub,2013-01-29 21:13:00,
2013-01-29 22:18:00,54.3,49.6,29.66,North,0,13.0,18.0,84,0.00,,,0.05,meteohub,2013-01-29 21:18:00,
2013-01-29 22:23:00,54.1,49.8,29.66,North,0,15.0,19.0,85,0.00,,,0.05,meteohub,2013-01-29 21:23:00,
2013-01-29 22:28:00,54.0,49.8,29.66,NNW,338,18.0,19.0,86,0.00,,,0.05,meteohub,2013-01-29 21:28:00,
2013-01-29 22:34:00,53.8,50.4,29.66,WSW,248,13.0,19.0,88,0.00,,,0.05,meteohub,2013-01-29 21:34:00,
2013-01-29 22:46:00,53.8,50.5,29.66,SW,225,12.0,23.0,89,0.00,,,0.05,meteohub,2013-01-29 21:46:00,
2013-01-29 22:53:00,54.1,50.9,29.66,West,270,20.0,20.0,89,0.00,,,0.05,meteohub,2013-01-29 21:53:00,
2013-01-29 22:58:00,54.3,50.9,29.63,SW,225,21.0,24.0,88,0.00,,,0.05,meteohub,2013-01-29 21:58:00,
2013-01-29 23:03:00,54.5,50.7,29.63,East,90,19.0,24.0,87,0.00,,,0.05,meteohub,2013-01-29 22:03:00,
2013-01-29 23:08:00,54.5,50.0,29.63,ENE,68,19.0,26.0,85,0.00,,,0.05,meteohub,2013-01-29 22:08:00,
2013-01-29 23:13:00,54.7,50.2,29.66,East,90,10.0,26.0,85,0.00,,,0.05,meteohub,2013-01-29 22:13:00,
2013-01-29 23:19:00,54.5,49.8,29.66,East,90,17.0,26.0,84,0.00,,,0.05,meteohub,2013-01-29 22:19:00,
2013-01-29 23:24:00,54.7,49.6,29.66,ENE,68,13.0,19.0,83,0.00,,,0.05,meteohub,2013-01-29 22:24:00,
2013-01-29 23:29:00,54.7,49.6,29.66,North,0,13.0,19.0,83,0.00,,,0.05,meteohub,2013-01-29 22:29:00,
2013-01-29 23:34:00,54.7,49.3,29.66,NW,315,15.0,17.0,82,0.00,,,0.05,meteohub,2013-01-29 22:34:00,
2013-01-29 23:39:00,54.9,49.5,29.66,East,90,19.0,19.0,82,0.00,,,0.05,meteohub,2013-01-29 22:39:00,
2013-01-29 23:49:00,54.9,48.7,29.66,ENE,68,17.0,23.0,80,0.00,,,0.05,meteohub,2013-01-29 22:49:00,
2013-01-29 23:55:00,54.9,48.7,29.66,North,-999,-999.0,17.0,80,0.00,,,0.05,meteohub,2013-01-29 22:55:00,